This demonstration page uses our WeatherBlox Daily Observations layout. Learn more.

Left ArrowRight Arrow

39.29038, -76.61219

Hourly Observations for January 17, 2022

Temp ( °F °C ) Dew Point ( °F °C ) Humidity (%) Winds ( mph kmh ) Pressure ( in mb ) Visibility ( mi km ) Precip ( " mm )
12:02 am 00:02 Cloudy with Light Rain 42 5.6 39 3.9 89 89 NE 20 31 29.19 988 4 6 0.01 0.25
12:28 am 00:28 Cloudy 41 5 39 3.9 93 93 ENE 14 22 29.15 987 8 13 0.01 0.25
12:54 am 00:54 Cloudy with Mist and Fog 41 5 40 4.4 96 96 E 3 6 29.13 987 6 10 0.01 0.25
1:04 am 01:04 Cloudy with Light Rain 40 4.4 38 3.3 93 93 NE 7 11 29.13 986 4 6 0.00 0.00
1:46 am 01:46 Cloudy with Mist and Fog 43 6.1 42 5.6 97 97 VRB 3 6 29.10 985 6 10 0.02 0.51
1:54 am 01:54 Cloudy 44 6.7 42 5.6 93 93 S 8 13 29.09 985 8 13 0.02 0.51
2:13 am 02:13 Mostly Cloudy 43 6.1 40 4.4 89 89 SSW 9 15 29.11 986 9 14 0.00 0.00
2:37 am 02:37 Mostly Cloudy 41 5 37 2.8 86 86 SSW 12 19 29.11 986 9 14 0.00 0.00
2:54 am 02:54 Cloudy 40 4.4 37 2.8 89 89 SSW 9 15 29.10 986 10 16 0.00 0.00
3:54 am 03:54 Cloudy 37 2.8 33 0.6 86 86 SSW 12 19 29.10 986 10 16 0.00 0.00
4:54 am 04:54 Cloudy 36 2.2 31 -0.6 82 82 SSW 12 19 29.09 985 10 16 0.00 0.00
5:54 am 05:54 Cloudy with Light Snow 35 1.7 31 -0.6 85 85 SSW 14 22 29.10 986 2 3 0.00 0.00
6:01 am 06:01 Cloudy with Light Snow 35 1.7 31 -0.6 85 85 SSW 13 20 29.11 986 2 2 0.01 0.25
6:24 am 06:24 Cloudy with Light Snow 34 1.1 31 -0.6 89 89 SSW 12 19 29.12 986 3 4 0.01 0.25
6:54 am 06:54 Cloudy with Light Snow 34 1.1 31 -0.6 89 89 SW 13 20 29.13 986 3 4 0.02 0.51
7:33 am 07:33 Cloudy 34 1.1 31 -0.6 89 89 WSW 13 20 29.14 987 9 14 0.00 0.00
7:54 am 07:54 Cloudy 35 1.7 31 -0.6 85 85 SW 13 20 29.15 987 10 16 0.00 0.00
8:54 am 08:54 Cloudy 35 1.7 31 -0.6 85 85 WSW 15 24 29.18 988 10 16 0.00 0.00
9:54 am 09:54 Partly Cloudy 38 3.3 29 -1.7 70 70 WSW 18 30 29.20 989 10 16 0.00 0.00
10:54 am 10:54 Mostly Cloudy 38 3.3 26 -3.3 62 62 W 17 28 29.23 990 10 16 0.00 0.00
11:54 am 11:54 Mostly Cloudy with Light Rain 39 3.9 24 -4.4 55 55 W 24 39 29.24 990 10 16 0.00 0.00
12:54 pm 12:54 Mostly Cloudy 39 3.9 24 -4.4 55 55 W 23 37 29.25 991 10 16 0.00 0.00
1:54 pm 13:54 Cloudy 37 2.8 22 -5.6 54 54 WSW 25 41 29.27 991 10 16 0.00 0.00
2:54 pm 14:54 Cloudy 36 2.2 20 -6.7 52 52 W 22 35 29.33 993 10 16 0.00 0.00
3:54 pm 15:54 Mostly Cloudy 35 1.7 20 -6.7 54 54 W 26 43 29.38 995 10 16 0.00 0.00
4:54 pm 16:54 Mostly Cloudy 34 1.1 20 -6.7 56 56 W 20 31 29.41 996 10 16 0.00 0.00
5:54 pm 17:54 Cloudy 34 1.1 20 -6.7 56 56 W 15 24 29.46 998 10 16 0.00 0.00
6:54 pm 18:54 Cloudy 34 1.1 18 -7.8 52 52 W 20 31 29.50 999 10 16 0.00 0.00
7:54 pm 19:54 Mostly Cloudy 34 1.1 17 -8.3 50 50 W 23 37 29.53 1000 10 16 0.00 0.00
8:54 pm 20:54 Mostly Cloudy 34 1.1 17 -8.3 50 50 W 18 30 29.57 1001 10 16 0.00 0.00
9:54 pm 21:54 Partly Cloudy 33 0.6 17 -8.3 52 52 W 18 30 29.61 1003 10 16 0.00 0.00
10:54 pm 22:54 Mostly Cloudy 34 1.1 18 -7.8 52 52 W 22 35 29.64 1004 10 16 0.00 0.00
11:54 pm 23:54 Mostly Cloudy 34 1.1 18 -7.8 52 52 W 18 30 29.68 1005 10 16 0.00 0.00

Powered by AerisWeather